Weather History for Cross City, FL

Change the Weather History Date:

Saturday, May 5, 2012

  Actual Average Record
Temperature  
Mean Temperature 76 °F 71 °F  
Max Temperature 91 °F 85 °F 93 °F (2002)
Min Temperature 61 °F 58 °F 46 °F (2004)
Degree Days  
Heating Degree Days 0 0  
Month to date heating degree days 0  
Since 1 July heating degree days 1303  
Cooling Degree Days 11 7  
Month to date cooling degree days 31  
Year to date cooling degree days 213  
Growing Degree Days 26 (Base 50)    
Moisture  
Dew Point 66 °F    
Average Humidity 72    
Maximum Humidity 97    
Minimum Humidity 40    
Precipitation  
Precipitation 0.00 in 0.06 in 1.14 in (2005)
Month to date precipitation 0.31  
Year to date precipitation 14.79  
Sea Level Pressure  
Sea Level Pressure 29.98 in    
Wind  
Wind Speed 2 mph (West)    
Max Wind Speed 15 mph    
Max Gust Speed 18 mph    
T = Trace of Precipitation, MM = Missing Value Source: NWS Daily Summary

Daily Weather History Graph

Daily Weather History Graph

Search for Another Location

Airport:

Trip Planner

Search our weather history database for the weather conditions in past years. The results will help you decide how hot, cold, wet, or windy it might be!

Date:

Astronomy

May. 05, 2012 Rise Set
Actual Time 6:46 AM EDT 8:12 PM EDT
Civil Twilight 6:20 AM EDT 8:37 PM EDT
Nautical Twilight 5:50 AM EDT 9:08 PM EDT
Astronomical Twilight 5:18 AM EDT 9:39 PM EDT
Moon 8:01 PM EDT (5/5) 6:07 AM EDT (5/5)
Length of Visible Light 14h 16m
Length of Day
13h 25m
Full, 100% of the Moon is Illuminated
May 5
Full
May 5
Full
May 12
Last Quarter
May 20
New
May 28
First Quarter

Hourly Weather History & Observations

Time (EDT) Temp. Heat Index Dew Point Humidity Pressure Visibility Wind Dir Wind Speed Gust Speed Precip Events Conditions
12:53 AM 66.9 °F - 64.9 °F 93% 30.02 in - Calm Calm - N/A   Unknown
1:53 AM 64.9 °F - 63.0 °F 93% 30.00 in - Calm Calm - N/A   Unknown
1:59 AM - - - N/A% - - North - - N/A   Unknown
2:53 AM 64.9 °F - 63.0 °F 93% 29.99 in - Calm Calm - N/A   Unknown
3:53 AM 64.9 °F - 64.0 °F 97% 29.98 in - Calm Calm - N/A   Unknown
4:53 AM 64.0 °F - 62.1 °F 93% 29.99 in - Calm Calm - N/A   Unknown
5:53 AM 63.0 °F - 62.1 °F 97% 29.99 in - Calm Calm - N/A   Unknown
6:53 AM 62.1 °F - 60.1 °F 93% 30.01 in - Calm Calm - N/A   Unknown
7:53 AM 66.0 °F - 64.0 °F 93% 30.01 in - Calm Calm - N/A   Unknown
8:53 AM 75.0 °F - 69.1 °F 82% 30.03 in - NE 3.5 mph - N/A   Unknown
9:53 AM 79.0 °F - 69.1 °F 72% 30.03 in - Calm Calm - N/A   Unknown
10:53 AM 82.9 °F 85.4 °F 66.9 °F 58% 30.04 in - Calm Calm - N/A   Unknown
11:53 AM 84.9 °F 87.1 °F 66.0 °F 53% 30.03 in - Calm Calm - N/A   Unknown
12:53 PM 86.0 °F 87.3 °F 64.0 °F 48% 30.01 in - NNW 6.9 mph - N/A   Unknown
1:53 PM 88.0 °F 90.7 °F 66.9 °F 49% 29.99 in - SW 10.4 mph - N/A   Unknown
2:53 PM 90.0 °F 91.7 °F 64.9 °F 43% 29.97 in - West 11.5 mph - N/A   Unknown
3:53 PM 91.0 °F 93.0 °F 64.9 °F 42% 29.96 in - West 6.9 mph - N/A   Unknown
4:53 PM 89.1 °F 92.1 °F 66.9 °F 48% 29.94 in - West 15.0 mph 18.4 mph N/A   Unknown
5:53 PM 86.0 °F 88.8 °F 66.9 °F 53% 29.93 in - West 12.7 mph - N/A   Unknown
6:53 PM 82.9 °F 85.4 °F 66.9 °F 58% 29.92 in - West 11.5 mph - N/A   Unknown
7:53 PM 81.0 °F 83.3 °F 66.9 °F 62% 29.92 in - WSW 5.8 mph - N/A   Unknown
8:53 PM 77.0 °F - 69.1 °F 76% 29.94 in - West 5.8 mph - N/A   Unknown
9:53 PM 75.0 °F - 69.1 °F 82% 29.94 in - WSW 3.5 mph - N/A   Unknown
10:53 PM 73.0 °F - 69.1 °F 87% 29.94 in - Calm Calm - N/A   Unknown
11:53 PM 71.1 °F - 68.0 °F 90% 29.95 in - Calm Calm - N/A   Unknown